Regional Weather Roundup
Issued by NWS Green Bay, WI

Home | Current Version | Previous Version | Graphics & Text | Print | Product List | Glossary Off
Versions: 1 2 3 4 5 6 7 8 9 10 11 12 13 14 15 16 17 18 19 20 21 22 23 24 25 26 27 28 29 30 31 32 33 34 35 36 37 38 39 40 41 42 43 44 45 46 47 48 49 50

000
ASUS43 KGRB 201300
RWRGRB

NORTH-CENTRAL AND NORTHEAST WISCONSIN REGIONAL WEATHER ROUNDUP
NATIONAL WEATHER SERVICE GREEN BAY WI
700 AM CST SAT JAN 20 2018

WIZ005-009-010>012-018-019-201400-
NORTH CENTRAL WISCONSIN

CITY           SKY/WX    TMP DP  RH WIND       PRES   REMARKS
IRONWOOD       FAIR      26  26 100 SW3       29.75R
MANITOWISH WTR NOT AVBL
ARBOR VITAE    NOT AVBL
EAGLE RIVER    FOG       18  18  99 W3        29.73R VSB 1/4
LAND O LAKES   NOT AVBL
RHINELANDER    FAIR      23  21  92 W5        29.76R
PHILLIPS       FAIR      13  12  96 CALM      29.77R FOG
ANTIGO         NOT AVBL
TOMAHAWK       NOT AVBL
MERRILL        FOG       20  20  98 CALM      29.79R VSB 1/4
$$

WIZ013-073-201400-
NORTHEAST WISCONSIN

CITY           SKY/WX    TMP DP  RH WIND       PRES   REMARKS
IRON MOUNTAIN  MOCLDY    25  22  88 CALM      29.73R
MARINETTE      FAIR      24  22  91 CALM      29.78R
$$

WIZ017-030-035>037-045-201400-
CENTRAL WISCONSIN

CITY           SKY/WX    TMP DP  RH WIND       PRES   REMARKS
MEDFORD        NOT AVBL
WAUSAU         FAIR      29  26  89 NW7       29.78R
MOSINEE        PTCLDY    27  27 100 CALM      29.80R
MARSHFIELD     FAIR      29  26  89 W5        29.78R
WISC RAPIDS    FOG       24  22  91 CALM      29.82R VSB 3/4
STEVENS POINT  NOT AVBL
WAUPACA        NOT AVBL
SHAWANO        FAIR      33  28  85 CALM      29.78R
CLINTONVILLE   NOT AVBL
WAUTOMA        FAIR      22  20  92 CALM      29.82R
$$

WIZ038-039-048-051-201400-
FOX VALLEY

CITY           SKY/WX    TMP DP  RH WIND       PRES   REMARKS
NWS GREEN BAY  FAIR      30  25  81 SW6       29.80R
APPLETON       MOCLDY    28  25  86 CALM      29.79R
OSHKOSH        FAIR      27  25  92 S5        29.81R
FOND DU LAC    FAIR      32  25  75 SW6       29.82R
$$

WIZ022-050-052-201400-
EAST CENTRAL WISCONSIN

CITY           SKY/WX    TMP DP  RH WIND       PRES   REMARKS
EPHRAIM        NOT AVBL
WASHINGTON ISL NOT AVBL
STURGEON BAY   FAIR      33  28  81 W6        29.78R
MANITOWOC      FAIR      35  28  75 W5        29.80R
SHEBOYGAN      FAIR      31  28  89 W7        29.81R
$$

LMZ563-521-522-541>543-201400-
LAKESHORE

STATION/POSITION TIME  TEMP    WIND        PRES    VSBY  WAVE
                       AIR SEA DIR/SP/G                  HT/PER
                 (UTC) (F)     (DEG/KT/KT) (MB)    (MI)  (FT/S)
SHEBOYGAN LKSHOR 1200   37     260/  6/  7 1009.2R
KEWAUNEE LKSHORE 1230   36     280/  6/ 11 1007.5R
NORTHPORT PIER   1240   34     250/  9/ 18 1007.8R
SISTER BAY LKSHO 1220   32     250/ 10/ 10   N/A
MENOMINEE LKSHOR 1224   28     360/ 18/ 26 1007.9
$$




USA.gov is the U.S. government's official web portal to all federal, state and local government web resources and services.